ニート彗星

246P/NEAT (2005)

English version
Home page
Updated on May 5, 2012

---------------------------------------------------------------------

・ プロフィール

符号 246P/2004 F3
発見日 2004年3月28日
発見光度 17.1等
発見者 Near-Earth-Asteroid Tracking Team (Jet Propulsion Laboratory)

・ 写真集

・ 軌道要素

Epoch 2004 Dec. 21.0 TT = JDT 2453360.5
T 2005 Jan. 4.29929 TT                                  MPC
q   2.8640671            (2000.0)            P               Q
n   0.12253033     Peri.  176.12479     -0.25699198     +0.92786731
a   4.0145818      Node    78.83146     -0.89390713     -0.12196969
e   0.2865840      Incl.   15.98785     -0.36726716     -0.35239984
P   8.04
From 1837 observations 2003 Feb. 1-2012 May 3, mean residual 0".5.

・ 星図

・ 光度変化

        m1 = -17.5 + 5 logΔ + 50   log r(t - 200)  [    ,-490]  (              〜2003年 9月 2日)
        m1 =   9.5 + 5 logΔ +  7.5 log r           [-490, 960]  (2003年 9月 2日〜2007年 8月22日)
        m1 = -17.5 + 5 logΔ + 50   log r(t - 200)  [ 960,    ]  (2007年 8月22日〜              )

---------------------------------------------------------------------

軌道要素はM.P.E.C. 2012-J16に掲載されたものです。
星図は StellaNavigator Ver.2.0 for Windows (アストロアーツ編著 / アスキー出版局刊) で作成したものです。
光度グラフはComet for Windowsで作成したものです。

---------------------------------------------------------------------

Copyright(C) Seiichi Yoshida (comet@aerith.net). All rights reserved.